Epoch 2009 May 9.0 TT = JDT 2454960.5
T 2009 May 24.40347 TT Bell
q 4.1989993 (2000.0) P Q
n 0.09441433 Peri. 328.27909 +0.98331920 -0.06026967
a 4.7765109 Node 36.41470 +0.15211583 +0.78977189
e 0.1209066 Incl. 16.80364 -0.09972024 +0.61043257
P 10.4
From 104 observations 2009 Sept. 17-2019 Oct. 31, mean residual 0".7.